This is the latest recevied weather packets stored in our database for station/object KD9CCP. If no packets are shown the sender has not sent any weather packets the latest 10 day(s).
| Time | Temp. | Humidity | Pressure | Rain* | Wind** | Luminosity | Snow |
|---|---|---|---|---|---|---|---|
| 1777604334 | 1.11° C | 75% | 1018.5 hPa | 0 mm | - | 0 W/m² | - |
| 1777604033 | 1.11° C | 74% | 1018.9 hPa | 0 mm | - | 0 W/m² | - |
| 1777603730 | 1.11° C | 73% | 1018.7 hPa | 0 mm | - | 0 W/m² | - |
| 1777603427 | 1.11° C | 72% | 1018.7 hPa | 0 mm | - | 0 W/m² | - |
| 1777603122 | 1.11° C | 74% | 1018.6 hPa | 0 mm | - | 0 W/m² | - |
| 1777602817 | 1.11° C | 73% | 1018.6 hPa | 0 mm | - | 0 W/m² | - |
| 1777602513 | 1.11° C | 72% | 1018.6 hPa | 0 mm | - | 0 W/m² | - |
| 1777602210 | 1.11° C | 73% | 1018.6 hPa | 0 mm | - | 0 W/m² | - |
| 1777601905 | 1.11° C | 73% | 1018.6 hPa | 0 mm | - | 0 W/m² | - |
| 1777601600 | 1.11° C | 74% | 1018.5 hPa | 0 mm | - | 0 W/m² | - |
| 1777601295 | 1.67° C | 75% | 1018.4 hPa | 0 mm | - | 0 W/m² | - |
| 1777600993 | 1.67° C | 75% | 1018.3 hPa | 0 mm | - | 0 W/m² | - |
| 1777600689 | 1.11° C | 75% | 1018.3 hPa | 0 mm | - | 0 W/m² | - |
| 1777600385 | 1.67° C | 76% | 1018 hPa | 0 mm | - | 0 W/m² | - |
| 1777600081 | 1.67° C | 77% | 1018.2 hPa | 0 mm | - | 0 W/m² | - |
| 1777599777 | 1.11° C | 77% | 1018.2 hPa | 0 mm | - | 0 W/m² | - |
| 1777599473 | 1.11° C | 78% | 1018.1 hPa | 0 mm | - | 0 W/m² | - |
| 1777599170 | 1.11° C | 77% | 1018.1 hPa | 0 mm | - | 0 W/m² | - |
| 1777598864 | 1.67° C | 79% | 1018.1 hPa | 0 mm | - | 0 W/m² | - |
| 1777598563 | 1.67° C | 77% | 1018 hPa | 0 mm | - | 0 W/m² | - |
| 1777598259 | 1.67° C | 78% | 1018.2 hPa | 0 mm | - | 0 W/m² | - |
| 1777597957 | 1.67° C | 75% | 1017.9 hPa | 0 mm | - | 0 W/m² | - |
| 1777597656 | 2.22° C | 73% | 1017.9 hPa | 0 mm | - | 0 W/m² | - |
| 1777597352 | 2.22° C | 73% | 1017.8 hPa | 0 mm | - | 0 W/m² | - |
| 1777597047 | 2.22° C | 72% | 1017.7 hPa | 0 mm | - | 0 W/m² | - |
* Rain latest hour (hover to see other rain measurements)
** Current wind speed in m/s (hover to see current wind gust speed)